Flag for U.S.A. Weather past 2 weeks in Houston, Texas, U.S.A.

Now
75 °F

Mostly cloudy.


Feels Like: 74 °F
Forecast: 77 / 90 °F
Wind: 8 mph from Southwest

Location: Houston Hobby Airport

Current Time: Aug 1, 2014 at 7:06:00 AM

Latest Report: Aug 1, 2014 at 5:53 AM


Visibility: 10 mi

Pressure: 29.96 "Hg

Humidity: 90%

Dew point: 72 °F

Location of HoustonLocation

Historic Weather in Houston — Graph

°F

Houston temperature yesterday

Maximum temperature yesterday: 93 °F (at 1:53 PM)
Minimum temperature yesterday: 78 °F (at 5:53 AM)
Average temperature yesterday: 84 °F

Past Weeks' High & Low Weather Summary

 TemperatureHumidityPressure
High96 °F (Jul 28, 4:53 PM)94% (Jul 18, 4:53 AM)30.13 "Hg (Jul 18, 4:53 AM)
Low74 °F (Jul 19, 3:53 AM)38% (Jul 28, 5:53 PM)29.84 "Hg (Jul 18, 4:53 AM)
Average83 °F75%30.00 "Hg
* Reported Jul 17 5:53 AM — Aug 1 5:53 AM, Houston, Weather by CustomWeather, © 2014

Note: Actual official high and low records may vary slightly from our data, if they occured in-between our weather recording intervals... More about our weather records

Advertising

Houston weather history for previous 24 hours

 ConditionsComfort  
Time TempWeatherWind HumidityBarometerVisibility
5:53 AM
Aug 1
75 °FMostly cloudy.8 mph90%29.96 "Hg10 mi
4:53 AM76 °FPassing clouds.13 mph91%29.95 "Hg10 mi
3:53 AM76 °FThunderstorms. Partly cloudy.6 mph88%29.94 "Hg10 mi
2:53 AM76 °FThunderstorms. Overcast.8 mph91%29.95 "Hg10 mi
2:02 AM75 °FThunderstorms. Fog.13 mph89%29.95 "Hg5 mi
1:53 AM76 °FThunderstorms. Fog.No wind88%29.97 "Hg1 mi
1:01 AM81 °FThunderstorms. Mostly cloudy.No wind94%29.95 "Hg8 mi
11:53 PM
Jul 31
82 °FThunderstorms. Mostly cloudy.3 mph85%29.97 "Hg10 mi
10:53 PM82 °FThunderstorms. Overcast.No wind85%29.97 "Hg10 mi
9:54 PM82 °FMostly cloudy.12 mph79%29.91 "Hg10 mi
8:53 PM83 °FMore clouds than sun.13 mph79%29.90 "Hg10 mi
7:53 PM84 °FBroken clouds.13 mph77%29.91 "Hg10 mi
6:53 PM87 °FBroken clouds.10 mph69%29.91 "Hg10 mi
5:53 PM88 °FBroken clouds.10 mph61%29.93 "Hg10 mi
4:53 PM90 °FScattered clouds.14 mph57%29.93 "Hg10 mi
3:53 PM92 °FBroken clouds.14 mph56%29.94 "Hg10 mi
2:53 PM86 °FThunderstorms. Broken clouds.14 mph67%29.96 "Hg10 mi
1:53 PM93 °FBroken clouds.6 mph50%29.97 "Hg10 mi
12:53 PM89 °FBroken clouds.6 mph57%29.99 "Hg10 mi
11:53 AM88 °FBroken clouds.8 mph61%30.01 "Hg10 mi
10:53 AM86 °FBroken clouds.6 mph63%30.00 "Hg10 mi
9:53 AM86 °FPartly sunny.7 mph67%29.99 "Hg10 mi
8:53 AM82 °FBroken clouds.3 mph77%29.99 "Hg10 mi
7:53 AM80 °FBroken clouds.No wind79%29.99 "Hg10 mi
Weather by CustomWeather, © 2014

See weather overviewHow to use our weather pages